Change the Weather History Date:

Thursday, October 11, 2012

  Actual Average Record
Temperature  
Mean Temperature 52 °F 53 °F  
Max Temperature 62 °F 67 °F 85 °F (1975)
Min Temperature 41 °F 38 °F 22 °F (1946)
Degree Days  
Heating Degree Days 13 12  
Month to date heating degree days 185 116  
Since 1 July heating degree days 254 257  
Cooling Degree Days 0 0  
Month to date cooling degree days 1 1  
Year to date cooling degree days 1236 765  
Growing Degree Days 2 (Base 50)    
Moisture  
Dew Point 31 °F    
Average Humidity 46    
Maximum Humidity 62    
Minimum Humidity 30    
Precipitation  
Precipitation 0.00 in 0.03 in 0.82 in (1969)
Month to date precipitation T 0.39  
Year to date precipitation 8.35 12.71  
Snow  
Snow 0.00 in - - ()
Month to date snowfall 0.4  
Since 1 July snowfall 0.4  
Since 1 September snowfall 0.4  
Snow Depth 0.00 in    
Sea Level Pressure  
Sea Level Pressure 30.02 in    
Wind  
Wind Speed 12 mph (East)    
Max Wind Speed 22 mph    
Max Gust Speed 25 mph    
Visibility 10 miles    
Events      
T = Trace of Precipitation, MM = Missing Value Source: NWS Daily Summary

Daily Weather History Graph

Daily Weather History Graph

Search for Another Location

Airport or City:

Trip Planner

Search our weather history database for the weather conditions in past years. The results will help you decide how hot, cold, wet, or windy it might be!

Date:

Astronomy

Oct. 11, 2012 Rise Set
Actual Time 7:05 AM MDT 6:24 PM MDT
Civil Twilight 6:38 AM MDT 6:51 PM MDT
Nautical Twilight 6:06 AM MDT 7:22 PM MDT
Astronomical Twilight 5:35 AM MDT 7:54 PM MDT
Moon 2:46 AM MDT (10/11) 4:01 PM MDT (10/11)
Length of Visible Light 12h 13m
Length of Day
11h 19m
Waning Crescent, 18% of the Moon is Illuminated
Oct 11
Waning Crescent
Oct 15
New
Oct 21
First Quarter
Oct 29
Full
Nov 6
Last Quarter

Hourly Weather History & Observations

Time (MDT) Temp. Windchill Dew Point Humidity Pressure Visibility Wind Dir Wind Speed Gust Speed Precip Events Conditions
12:53 AM 52.0 °F - 34.0 °F 50% 29.88 in 10.0 mi SW 11.5 mph - N/A   Mostly Cloudy
1:53 AM 54.0 °F - 28.9 °F 38% 29.87 in 10.0 mi SSW 15.0 mph - N/A   Mostly Cloudy
2:53 AM 57.0 °F - 27.0 °F 32% 29.84 in 10.0 mi SSW 19.6 mph - N/A   Mostly Cloudy
3:53 AM 55.0 °F - 27.0 °F 34% 29.85 in 10.0 mi SSW 17.3 mph - N/A   Mostly Cloudy
4:53 AM 54.0 °F - 27.0 °F 35% 29.87 in 10.0 mi WNW 8.1 mph - N/A   Scattered Clouds
5:53 AM 51.1 °F - 27.0 °F 39% 29.91 in 10.0 mi SW 10.4 mph - N/A   Partly Cloudy
6:53 AM 48.9 °F - 27.0 °F 43% 29.94 in 10.0 mi SW 10.4 mph - N/A   Scattered Clouds
7:53 AM 51.1 °F - 28.0 °F 41% 29.96 in 10.0 mi WSW 10.4 mph - N/A   Mostly Cloudy
8:53 AM 53.1 °F - 30.9 °F 43% 30.01 in 10.0 mi NNE 5.8 mph - N/A   Mostly Cloudy
9:53 AM 59.0 °F - 32.0 °F 36% 30.02 in 10.0 mi NE 12.7 mph - N/A   Mostly Cloudy
10:53 AM 57.9 °F - 34.0 °F 41% 30.04 in 10.0 mi ENE 13.8 mph - 0.05 in   Scattered Clouds
11:53 AM 60.1 °F - 35.1 °F 39% 30.04 in 10.0 mi NE 11.5 mph - N/A   Scattered Clouds
12:53 PM 61.0 °F - 34.0 °F 36% 30.01 in 10.0 mi NNE 13.8 mph 18.4 mph N/A   Scattered Clouds
1:53 PM 62.1 °F - 34.0 °F 35% 30.00 in 10.0 mi NNE 11.5 mph - N/A   Scattered Clouds
2:53 PM 62.1 °F - 32.0 °F 32% 29.98 in 10.0 mi NE 11.5 mph - N/A   Scattered Clouds
3:53 PM 62.6 °F - 32.0 °F 32% 30.16 in 10.0 mi NE 12.7 mph 16.1 mph N/A   Scattered Clouds
4:53 PM 60.1 °F - 32.0 °F 35% 30.04 in 10.0 mi ENE 10.4 mph - N/A   Scattered Clouds
5:53 PM 55.9 °F - 32.0 °F 40% 30.08 in 10.0 mi ENE 11.5 mph - N/A   Scattered Clouds
6:53 PM 51.1 °F - 32.0 °F 48% 30.12 in 10.0 mi East 8.1 mph - N/A   Scattered Clouds
7:53 PM 46.9 °F - 32.0 °F 56% 30.15 in 10.0 mi ENE 9.2 mph - N/A   Scattered Clouds
8:53 PM 44.6 °F 39.7 °F 30.2 °F 57% 30.25 in 10.0 mi East 9.2 mph - N/A   Scattered Clouds
9:53 PM 45.0 °F 38.2 °F 30.9 °F 58% 30.15 in 10.0 mi ESE 15.0 mph - N/A   Scattered Clouds
10:53 PM 43.0 °F 37.2 °F 30.9 °F 62% 30.14 in 10.0 mi East 10.4 mph - N/A   Mostly Cloudy
11:53 PM 42.1 °F 36.1 °F 30.9 °F 65% 30.13 in 10.0 mi ESE 10.4 mph - N/A   Mostly Cloudy